EW3286 Weather Reports


time (UTC)temp
C
wind
direction
speed
KPH
gust
KPH
rain 1hr
cm
rain 24hr
cm
rain mn
cm
humidity
%
barometer
mb
20260502160107 12 140 0.0 0.0 0.00 0.00 0.00 44 1020.0
20260502151552 11 150 0.0 0.0 0.00 0.00 0.00 47 1020.3
20260502150106 11 150 0.0 0.0 0.00 0.00 0.00 46 1020.3
20260502123057 1 165 0.0 0.0 0.00 0.00 0.00 83 1021.3
20260502121602 1 189 0.0 0.0 0.00 0.00 0.00 83 1021.4
20260502120111 0 196 0.0 0.0 0.00 0.00 0.00 82 1021.3
20260502114554 0 227 0.0 0.0 0.00 0.00 0.00 81 1021.3
20260502113108 0 247 0.0 0.0 0.00 0.00 0.00 81 1021.2
20260502111547 0 248 0.0 0.0 0.00 0.00 0.00 81 1021.2
20260502110047 0 248 0.0 0.0 0.00 0.00 0.00 81 1021.1
20260502104542 0 248 0.0 0.0 0.00 0.00 0.00 82 1021.3
20260502103104 0 249 0.0 0.0 0.00 0.00 0.00 81 1021.3
20260502101548 0 250 0.0 0.0 0.00 0.00 0.00 80 1021.3
20260502091533 0 268 0.0 0.0 0.00 0.00 0.00 79 1021.1
20260502071521 1 269 0.0 0.0 0.00 0.00 0.00 79 1021.1
20260502070018 1 269 0.0 0.0 0.00 0.00 0.00 79 1021.3
20260502064515 1 269 0.0 0.0 0.00 0.00 0.00 78 1021.3
20260502063016 1 269 0.0 0.0 0.00 0.00 0.00 78 1021.4
20260502061513 1 269 0.0 0.0 0.00 0.00 0.00 77 1021.4
20260502060011 1 269 0.0 0.0 0.00 0.00 0.00 76 1021.4
20260502054511 1 269 0.0 0.0 0.00 0.00 0.00 74 1021.3
20260502053007 1 269 0.0 0.0 0.00 0.00 0.00 74 1021.3
20260502051506 1 269 0.0 0.0 0.00 0.00 0.00 73 1021.3
20260502050003 2 269 0.0 0.0 0.00 0.00 0.00 73 1021.3
20260502044501 2 269 0.0 0.0 0.00 0.00 0.00 74 1021.3
20260502043109 2 269 0.0 0.0 0.00 0.00 0.00 72 1021.2
20260502041600 2 269 0.0 0.0 0.00 0.00 0.00 70 1021.2
20260502040101 3 269 0.0 0.0 0.00 0.00 0.00 69 1021.1
20260502034559 3 269 0.0 0.0 0.00 0.00 0.00 67 1021.0
20260502033057 4 269 0.0 0.0 0.00 0.00 0.00 66 1021.0
20260502031557 5 269 0.0 0.0 0.00 0.00 0.00 62 1021.0
20260502030106 6 269 0.0 0.0 0.00 0.00 0.00 58 1021.1
20260502024555 6 269 0.0 0.0 0.00 0.00 0.00 59 1020.9
20260502023059 6 269 0.0 0.0 0.00 0.00 0.00 55 1020.9
20260502021555 7 270 0.0 0.0 0.00 0.00 0.00 55 1020.6
20260502020050 7 270 0.0 0.0 0.00 0.00 0.00 52 1020.4
20260502014549 7 281 0.0 0.0 0.00 0.00 0.00 50 1020.2
20260502013055 8 244 0.0 0.0 0.00 0.00 0.00 48 1020.1
20260502011548 8 278 0.0 0.0 0.00 0.00 0.00 47 1020.0
20260502010053 9 265 0.0 0.0 0.00 0.00 0.00 45 1019.8
20260502004546 9 252 0.0 0.0 0.00 0.00 0.00 46 1019.8
20260502003045 9 271 0.0 0.0 0.00 0.00 0.00 43 1019.7
20260502001544 10 261 0.0 0.0 0.00 0.00 0.00 43 1019.6
20260502000044 10 259 0.0 0.0 0.00 0.00 0.00 43 1019.6
20260501234544 10 262 0.0 0.0 0.00 0.00 0.00 44 1019.5
20260501233052 10 270 0.0 0.0 0.00 0.00 0.00 44 1019.5
20260501231540 10 265 0.0 0.0 0.00 0.00 0.00 45 1019.5
20260501230039 10 226 0.0 0.0 0.00 0.00 0.00 41 1019.4
20260501224538 10 233 0.0 0.0 0.00 0.00 0.00 44 1019.4
20260501223041 10 265 0.0 0.0 0.00 0.00 0.00 44 1019.4
20260501221536 10 234 0.0 0.0 0.00 0.00 0.00 43 1019.4
20260501220035 9 290 0.0 0.0 0.00 0.00 0.00 45 1019.4
20260501214535 10 250 0.0 0.0 0.00 0.00 0.00 46 1019.4
20260501213033 10 261 0.0 0.0 0.00 0.00 0.00 45 1019.3
20260501211542 10 253 0.0 0.0 0.00 0.00 0.00 45 1019.4
20260501210033 10 201 0.0 0.0 0.00 0.00 0.00 48 1019.5
20260501204522 9 238 0.0 0.0 0.00 0.00 0.00 47 1019.6
20260501203027 9 285 0.0 0.0 0.00 0.00 0.00 48 1019.7
20260501201524 9 286 0.0 0.0 0.00 0.00 0.00 50 1019.6
20260501200022 9 287 0.0 0.0 0.00 0.00 0.00 47 1019.7
20260501194516 9 281 0.0 0.0 0.00 0.00 0.00 51 1019.6
20260501193012 9 269 0.0 0.0 0.00 0.00 0.00 49 1019.8
20260501191509 8 271 0.0 0.0 0.00 0.00 0.00 47 1019.8
20260501190009 8 180 0.0 0.0 0.00 0.00 0.00 50 1019.7
20260501184505 8 274 0.0 0.0 0.00 0.00 0.00 50 1019.8
20260501183003 8 249 0.0 0.0 0.00 0.00 0.00 50 1019.9
20260501181621 8 274 0.0 0.0 0.00 0.00 0.00 50 1019.8
20260501174556 7 241 0.0 0.0 0.00 0.00 0.00 53 1020.0
20260501173054 7 237 0.0 0.0 0.00 0.00 0.00 53 1020.1
20260501171559 7 234 0.0 0.0 0.00 0.00 0.00 56 1020.1
20260501170048 7 319 0.0 0.0 0.00 0.00 0.00 56 1020.0
20260501164545 7 265 0.0 0.0 0.00 0.00 0.00 56 1020.0
20260501163044 7 259 0.0 0.0 0.00 0.00 0.00 57 1019.8
20260501161541 7 253 0.0 0.0 0.00 0.00 0.00 62 1020.0